Indianapolis Executive (TYQ)

 

Airport Diagram
No Airport Diagram Available
Current Weather/Forecast (VFR Conditions)
METAR KTYQ 182235Z AUTO 29004KT 10SM OVC075 15/M01 A2989 RMK AO2 T01471007
TAF

Airport Information

All Charts
General
Chart Name View
TAKEOFF MINIMUMS
ALTERNATE MINIMUMS
TAKEOFF MINIMUMS
ALTERNATE MINIMUMS

Departures
Chart Name Download
DAWNN ONE
DAWNN ONE, CONT.1
HOOSIER FIVE
MAREO FIVE
MEARZ SIX
ROCKY ONE
DAWNN ONE
DAWNN ONE, CONT.1
HOOSIER FIVE
MAREO FIVE
MEARZ SIX
ROCKY ONE

Arrivals
Chart Name Download
RACYR FIVE
RACYR FIVE

Approaches
Chart Name Download
ILS OR LOC RWY 36
RNAV (GPS) RWY 18
RNAV (GPS) RWY 36
VOR RWY 18
ILS OR LOC RWY 36
RNAV (GPS) RWY 18
RNAV (GPS) RWY 36
VOR RWY 18


Airport Statistics
Departures Arrivals Local
All Collected Stats since June 2016: 162 123 5
2021 Stats: 39 32 1
April Stats: 7 4 1

Inbound Traffic (Arrivals) - 0

No inbound traffic.


Outbound Traffic (Departures) - 0

No outbound traffic.


Local Traffic (Pattern) - 0

No local traffic.